EW9081 Weather Reports


time (UTC)temp
F
wind
direction
speed
knots
gust
knots
rain 1hr
in
rain 24hr
in
rain mn
in
humidity
%
barometer
mb
20260906145325 55 211 0.0 1.7 0.01 0.23 0.09 95 1016.0
20260906144827 55 211 0.0 1.7 0.01 0.23 0.09 94 1015.9
20260906144326 55 211 0.0 0.0 0.01 0.23 0.09 94 1015.8
20260906143826 55 211 0.0 0.0 0.01 0.23 0.09 94 1015.8
20260906143326 55 211 0.0 0.0 0.01 0.22 0.08 94 1015.8
20260906142825 55 211 0.0 0.0 0.01 0.22 0.08 94 1015.7
20260906142327 55 211 0.0 0.0 0.01 0.22 0.08 94 1015.6
20260906141825 55 211 0.0 0.0 0.01 0.22 0.08 94 1015.5
20260906141325 55 211 0.0 0.0 0.01 0.22 0.08 94 1015.5
20260906140826 55 211 0.0 0.9 0.01 0.22 0.08 94 1015.4
20260906140331 55 211 0.0 0.0 0.01 0.22 0.08 94 1015.3
20260906140327 55 211 0.0 0.9 0.01 0.22 0.08 94 1015.3
20260906135825 55 211 0.0 0.0 0.01 0.22 0.08 94 1015.3
20260906134825 55 211 0.0 0.0 0.01 0.22 0.08 94 1015.3
20260906134331 55 211 0.0 0.9 0.01 0.22 0.08 94 1015.2
20260906134326 55 211 0.0 0.9 0.01 0.22 0.08 94 1015.2
20260906133325 55 211 0.0 1.7 0.00 0.21 0.07 94 1015.2
20260906132825 55 211 0.0 1.7 0.01 0.21 0.07 94 1015.1
20260906132325 55 211 0.0 1.7 0.01 0.22 0.07 94 1015.2
20260906131826 55 211 0.0 1.7 0.01 0.22 0.07 94 1015.2
20260906131326 55 211 0.0 1.7 0.01 0.22 0.07 94 1015.2
20260906130826 55 211 0.0 1.7 0.01 0.22 0.07 93 1015.1
20260906130324 55 211 0.0 1.7 0.01 0.22 0.07 93 1015.2
20260906125821 55 240 0.0 1.7 0.01 0.22 0.07 93 1015.2
20260906125322 55 248 0.9 3.5 0.01 0.22 0.07 93 1015.1
20260906124821 55 248 0.0 3.5 0.01 0.22 0.07 93 1015.3
20260906124322 55 263 0.0 1.7 0.02 0.22 0.07 93 1015.3
20260906123821 55 264 0.0 1.7 0.02 0.22 0.07 93 1015.3
20260906123321 55 223 0.0 0.9 0.03 0.22 0.07 93 1015.3
20260906122820 55 223 0.0 1.7 0.05 0.21 0.06 93 1015.4
20260906122319 55 223 0.0 1.7 0.05 0.21 0.06 93 1015.4
20260906121820 55 223 0.0 1.7 0.06 0.21 0.06 93 1015.4
20260906121321 55 223 0.0 1.7 0.06 0.21 0.06 93 1015.4
20260906120821 55 223 0.0 1.7 0.06 0.21 0.06 93 1015.5
20260906120319 55 223 0.0 1.7 0.06 0.21 0.06 93 1015.4
20260906115825 55 225 0.9 3.5 0.06 0.21 0.06 93 1015.2
20260906115821 55 223 0.9 2.6 0.06 0.21 0.06 93 1015.2
20260906114819 55 217 0.9 3.5 0.06 0.21 0.06 93 1015.3
20260906114320 55 217 0.9 3.5 0.05 0.20 0.05 92 1015.3
20260906113820 55 221 0.9 3.5 0.05 0.20 0.05 92 1015.1
20260906113319 55 219 0.0 2.6 0.04 0.19 0.04 92 1015.1
20260906112820 55 220 0.0 2.6 0.01 0.16 0.01 92 1015.2
20260906112319 56 221 0.9 2.6 0.01 0.16 0.01 92 1015.2
20260906111824 55 207 0.9 2.6 0.00 0.15 0.00 92 1015.1
20260906111820 56 11 0.9 2.6 0.00 0.15 0.00 92 1015.2
20260906110819 55 203 0.0 1.7 0.00 0.15 0.00 92 1015.1
20260906110326 55 202 0.0 1.7 0.00 0.15 0.00 91 1015.1
20260906110319 55 202 0.0 1.7 0.00 0.15 0.00 92 1015.2
20260906105818 55 202 0.0 1.7 0.00 0.15 0.00 91 1015.1
20260906104825 55 269 0.9 2.6 0.00 0.15 0.00 91 1015.0
20260906104818 55 202 0.9 1.7 0.00 0.15 0.00 91 1015.0
20260906104317 55 243 0.0 1.7 0.00 0.15 0.00 91 1014.9
20260906103817 55 246 0.0 3.5 0.00 0.15 0.00 91 1014.9
20260906103317 55 240 0.9 3.5 0.00 0.15 0.00 91 1014.9
20260906102317 55 225 0.9 2.6 0.00 0.15 0.00 91 1014.9
20260906101817 55 252 0.9 2.6 0.00 0.15 0.00 91 1015.0
20260906101317 55 244 0.9 3.5 0.00 0.15 0.00 91 1015.0
20260906100816 56 250 0.9 3.5 0.00 0.15 0.00 91 1015.0
20260906100315 55 242 0.9 2.6 0.00 0.15 0.00 91 1015.1
20260906095815 56 278 0.9 2.6 0.00 0.15 0.00 91 1015.1
20260906095315 55 284 0.9 2.6 0.00 0.15 0.00 91 1015.1
20260906094821 55 246 0.9 3.5 0.00 0.15 0.00 91 1015.0
20260906094815 55 240 0.0 2.6 0.00 0.15 0.00 91 1015.0
20260906094428 55 244 0.9 3.5 0.00 0.15 0.00 91 1015.0
20260906093323 55 205 0.0 1.7 0.00 0.15 0.00 91 1014.9
20260906093315 55 253 0.9 2.6 0.00 0.15 0.00 91 1014.9
20260906092933 55 242 0.9 2.6 0.00 0.15 0.00 91 1014.9
20260906092815 55 290 0.0 1.7 0.00 0.15 0.00 91 1014.9
20260906091319 56 246 0.9 6.1 0.00 0.15 0.00 91 1014.9
20260906091313 55 259 0.9 2.6 0.00 0.15 0.00 91 1014.9
20260906090314 56 248 0.9 6.1 0.00 0.15 0.00 91 1014.9
20260906085813 56 229 0.9 4.3 0.00 0.15 0.00 91 1014.9
20260906085315 55 261 0.9 5.2 0.00 0.15 0.00 91 1014.9
20260906084815 55 261 0.9 5.2 0.00 0.15 0.00 91 1014.9
20260906084313 55 237 0.9 4.3 0.00 0.15 0.00 91 1014.9
20260906083814 55 242 1.7 4.3 0.00 0.15 0.00 91 1014.9
20260906083312 55 307 0.9 3.5 0.00 0.15 0.00 91 1015.0
20260906082813 55 215 0.9 2.6 0.00 0.15 0.00 91 1015.1
20260906082311 56 226 0.9 3.5 0.00 0.15 0.00 91 1015.0
20260906081811 56 217 0.9 4.3 0.00 0.15 0.00 92 1015.0
20260906081311 56 245 1.7 4.3 0.00 0.15 0.00 92 1015.1
20260906080811 56 195 0.9 3.5 0.00 0.15 0.00 92 1015.1
20260906080311 56 267 0.0 1.7 0.00 0.15 0.00 92 1015.0
20260906075810 56 223 0.0 1.7 0.00 0.15 0.00 92 1015.0
20260906075310 56 224 0.0 2.6 0.00 0.15 0.00 92 1015.1
20260906074812 56 262 0.0 2.6 0.00 0.15 0.00 92 1015.1
20260906074311 56 284 0.0 2.6 0.00 0.15 0.00 92 1015.2
20260906073811 56 243 0.0 2.6 0.00 0.15 0.00 91 1015.2
20260906073314 56 248 0.0 2.6 0.00 0.15 0.00 91 1015.2
20260906073309 56 246 0.0 1.7 0.00 0.15 0.00 91 1015.3
20260906072310 56 250 0.0 2.6 0.00 0.15 0.00 91 1015.2
20260906071810 56 244 0.0 2.6 0.00 0.15 0.00 91 1015.3
20260906071309 56 278 0.0 2.6 0.00 0.15 0.00 91 1015.3
20260906070811 56 244 0.0 2.6 0.00 0.15 0.00 91 1015.3
20260906070309 56 242 0.9 2.6 0.00 0.15 0.00 91 1015.3
20260906065810 56 190 0.9 2.6 0.00 0.15 0.15 91 1015.2
20260906065309 56 259 0.9 2.6 0.00 0.15 0.15 91 1015.3
20260906064809 56 249 0.9 3.5 0.00 0.15 0.15 91 1015.3
20260906064310 56 212 0.9 3.5 0.00 0.15 0.15 91 1015.3
20260906063809 56 232 0.0 2.6 0.00 0.15 0.15 91 1015.2
20260906063313 56 227 0.9 2.6 0.00 0.15 0.15 91 1015.3
20260906063309 56 225 0.9 2.6 0.00 0.15 0.15 91 1015.3
20260906062309 56 255 0.0 2.6 0.00 0.15 0.15 91 1015.4
20260906061808 56 260 0.0 2.6 0.00 0.15 0.15 91 1015.4
20260906061307 56 261 0.0 2.6 0.00 0.15 0.15 91 1015.4
20260906060807 56 238 0.0 2.6 0.00 0.15 0.15 91 1015.3
20260906060307 57 253 0.0 1.7 0.00 0.15 0.15 91 1015.4
20260906055812 57 255 0.9 3.5 0.00 0.15 0.15 91 1015.5
20260906055808 57 254 0.9 3.5 0.00 0.15 0.15 91 1015.4
20260906055306 57 252 0.9 2.6 0.00 0.15 0.15 91 1015.5
20260906054310 57 258 0.0 2.6 0.00 0.15 0.15 90 1015.5
20260906054305 57 212 0.0 1.7 0.00 0.15 0.15 91 1015.5
20260906053305 57 267 0.0 2.6 0.00 0.15 0.15 90 1015.5
20260906052806 57 226 0.0 2.6 0.00 0.15 0.15 90 1015.6
20260906052305 57 224 0.9 2.6 0.00 0.15 0.15 90 1015.6
20260906051803 57 248 0.9 2.6 0.00 0.15 0.15 90 1015.7
20260906051303 57 219 0.9 2.6 0.00 0.15 0.15 90 1015.6
20260906050805 57 265 0.9 3.5 0.00 0.15 0.15 90 1015.6
20260906050308 58 250 0.9 3.5 0.00 0.15 0.15 90 1015.5
20260906050303 58 253 0.9 3.5 0.00 0.15 0.15 90 1015.5
20260906045416 58 220 0.9 3.5 0.00 0.15 0.15 89 1015.6
20260906045309 58 211 0.9 3.5 0.00 0.15 0.15 89 1015.6
20260906045306 58 211 0.9 3.5 0.00 0.15 0.15 89 1015.5
20260906043804 58 213 0.9 3.5 0.00 0.15 0.15 89 1015.7
20260906043302 58 209 1.7 4.3 0.00 0.15 0.15 89 1015.7
20260906042806 58 182 1.7 5.2 0.00 0.15 0.15 89 1015.7
20260906042801 58 209 2.6 5.2 0.00 0.15 0.15 89 1015.7
20260906041800 58 229 1.7 6.1 0.00 0.15 0.15 89 1015.7
20260906041301 58 212 1.7 6.1 0.00 0.15 0.15 89 1015.7
20260906040801 58 218 1.7 3.5 0.00 0.15 0.15 89 1015.7
20260906040302 58 208 0.9 3.5 0.00 0.15 0.15 89 1015.7
20260906035803 58 238 0.9 3.5 0.00 0.15 0.15 89 1015.7
20260906035301 58 235 0.9 2.6 0.00 0.15 0.15 89 1015.7
20260906034800 58 240 0.9 4.3 0.00 0.15 0.15 88 1015.7
20260906034258 58 247 0.9 4.3 0.00 0.15 0.15 88 1015.7
20260906033759 58 223 0.9 2.6 0.00 0.15 0.15 87 1015.6
20260906033259 59 230 0.9 4.3 0.00 0.15 0.15 87 1015.6
20260906032759 59 213 0.9 4.3 0.00 0.15 0.15 87 1015.6
20260906032258 59 219 1.7 4.3 0.00 0.15 0.15 87 1015.6
20260906031759 59 222 0.9 4.3 0.00 0.15 0.15 86 1015.6
20260906031259 59 202 0.9 3.5 0.00 0.15 0.15 86 1015.5
20260906030759 59 208 0.9 3.5 0.00 0.15 0.15 86 1015.4
20260906030300 59 243 0.9 4.3 0.00 0.15 0.15 86 1015.4
20260906025800 60 234 0.9 4.3 0.00 0.15 0.15 85 1015.4
20260906025257 60 234 0.0 2.6 0.00 0.15 0.15 85 1015.4
20260906024757 60 229 0.9 2.6 0.00 0.15 0.15 85 1015.5
20260906024257 60 205 1.7 3.5 0.00 0.15 0.15 85 1015.5
20260906023758 60 209 1.7 3.5 0.00 0.15 0.15 84 1015.5
20260906023301 60 213 1.7 3.5 0.00 0.15 0.15 84 1015.6
20260906023257 60 215 1.7 3.5 0.00 0.15 0.15 84 1015.5
20260906022255 60 225 1.7 3.5 0.00 0.15 0.15 84 1015.6
20260906021754 61 232 0.9 3.5 0.00 0.15 0.15 84 1015.6
20260906021255 61 244 0.9 3.5 0.00 0.15 0.15 84 1015.6
20260906020757 61 242 0.9 3.5 0.00 0.15 0.15 83 1015.6
20260906020753 61 232 0.9 3.5 0.00 0.15 0.15 83 1015.6
20260906015754 62 216 1.7 3.5 0.00 0.15 0.15 82 1015.7
20260906015251 62 229 0.9 2.6 0.00 0.15 0.15 82 1015.7
20260906014751 62 231 0.9 2.6 0.00 0.15 0.15 81 1015.7
20260906014250 62 223 1.7 4.3 0.00 0.15 0.15 81 1015.6
20260906013749 63 244 1.7 4.3 0.00 0.15 0.15 80 1015.6
20260906013249 63 210 1.7 3.5 0.00 0.15 0.15 79 1015.6
20260906012748 64 221 0.9 2.6 0.00 0.15 0.15 78 1015.6
20260906012249 64 219 0.9 3.5 0.00 0.15 0.15 79 1015.6
20260906011748 64 208 1.7 5.2 0.00 0.15 0.15 79 1015.6
20260906011249 64 291 1.7 5.2 0.00 0.15 0.15 78 1015.5
20260906010748 64 315 0.9 4.3 0.00 0.15 0.15 79 1015.5
20260906010248 64 244 0.9 4.3 0.00 0.15 0.15 79 1015.4
20260906005749 64 259 0.9 4.3 0.00 0.15 0.15 79 1015.4
20260906005249 64 257 0.9 3.5 0.00 0.15 0.15 79 1015.4
20260906004747 64 258 0.9 3.5 0.00 0.15 0.15 79 1015.4
20260906004248 64 239 0.9 3.5 0.00 0.15 0.15 79 1015.4
20260906003747 64 240 0.9 3.5 0.00 0.15 0.15 79 1015.4
20260906003248 64 267 0.9 2.6 0.00 0.15 0.15 78 1015.4
20260906002744 64 257 0.9 2.6 0.00 0.15 0.15 76 1015.5
20260906002246 65 246 0.9 2.6 0.00 0.15 0.15 76 1015.6
20260906001744 65 271 0.9 2.6 0.00 0.15 0.15 76 1015.6
20260906001244 65 285 0.9 2.6 0.00 0.15 0.15 75 1015.6
20260906000744 65 267 1.7 6.1 0.00 0.15 0.15 75 1015.6
20260906000248 66 285 1.7 6.1 0.00 0.15 0.15 75 1015.6
20260905235746 66 310 1.7 3.5 0.00 0.15 0.15 74 1015.5
20260905235246 66 250 1.7 4.3 0.00 0.15 0.15 77 1015.5
20260905234752 66 269 1.7 2.6 0.00 0.16 0.15 73 1015.5
20260905234744 65 270 1.7 4.3 0.00 0.15 0.15 73 1015.5
20260905234246 66 306 0.9 2.6 0.00 0.15 0.15 73 1015.5
20260905233244 66 295 1.7 5.2 0.00 0.16 0.15 75 1015.5
20260905232744 65 273 0.9 5.2 0.00 0.16 0.15 76 1015.6
20260905232244 65 281 0.9 3.5 0.00 0.16 0.15 77 1015.5
20260905231745 65 315 0.9 3.5 0.00 0.16 0.15 75 1015.6
20260905231246 65 344 0.9 3.5 0.00 0.16 0.15 77 1015.7
20260905230745 65 288 0.9 3.5 0.00 0.17 0.15 78 1015.7
20260905230244 65 307 0.9 3.5 0.00 0.17 0.15 80 1015.7
20260905225744 64 248 0.9 4.3 0.00 0.17 0.15 79 1015.8
20260905225244 65 302 0.9 4.3 0.00 0.17 0.15 80 1015.8
20260905224744 65 216 0.9 3.5 0.00 0.17 0.15 77 1015.9
20260905224245 65 306 1.7 3.5 0.00 0.17 0.15 78 1015.9
20260905223744 65 288 0.9 3.5 0.00 0.17 0.15 78 1015.9
20260905223245 65 285 1.7 3.5 0.00 0.17 0.15 79 1016.0
20260905222744 65 306 1.7 4.3 0.00 0.17 0.15 82 1016.1
20260905222243 65 198 1.7 4.3 0.00 0.17 0.15 82 1016.1
20260905221743 65 5 1.7 3.5 0.00 0.17 0.15 82 1016.1
20260905221243 64 297 1.7 4.3 0.00 0.17 0.15 79 1016.1
20260905220742 64 237 0.9 4.3 0.00 0.17 0.15 85 1016.2
20260905220248 64 302 0.9 4.3 0.00 0.17 0.15 82 1016.3
20260905220242 64 278 1.7 4.3 0.00 0.17 0.15 81 1016.2
20260905215243 64 312 0.9 3.5 0.02 0.17 0.15 84 1016.3
20260905214746 63 287 0.9 3.5 0.04 0.17 0.15 86 1016.4
20260905214741 63 238 0.9 3.5 0.03 0.17 0.15 85 1016.4
20260905213740 62 306 0.9 2.6 0.05 0.17 0.15 89 1016.4
20260905213238 62 290 0.9 2.6 0.07 0.17 0.15 88 1016.4
20260905212738 61 300 0.9 2.6 0.09 0.17 0.15 88 1016.4
20260905212238 61 296 0.0 2.6 0.12 0.17 0.15 89 1016.4
20260905211739 61 226 0.0 0.0 0.13 0.18 0.15 87 1016.4
20260905211236 61 221 0.0 0.0 0.14 0.18 0.15 88 1016.7
20260905210737 60 221 0.0 0.0 0.14 0.19 0.15 90 1016.7
20260905210236 60 221 0.0 0.0 0.14 0.19 0.15 89 1016.8
20260905205736 60 221 0.0 1.7 0.14 0.19 0.15 88 1016.8
20260905205240 60 221 0.0 1.7 0.11 0.16 0.12 87 1016.8
20260905205236 60 221 0.0 1.7 0.12 0.17 0.13 89 1016.8
20260905204240 60 221 0.9 2.6 0.09 0.14 0.11 86 1016.8
20260905204236 60 221 0.9 1.7 0.10 0.15 0.11 88 1016.8
20260905203237 61 221 0.9 2.6 0.07 0.12 0.08 86 1016.8
20260905202736 61 192 0.0 1.7 0.05 0.10 0.06 85 1016.8
20260905202236 62 187 0.0 1.7 0.02 0.07 0.03 83 1016.8
20260905201734 62 186 0.0 1.7 0.01 0.06 0.02 82 1016.8
20260905201234 62 168 0.0 1.7 0.00 0.05 0.01 80 1016.8
20260905200734 62 168 0.0 2.6 0.00 0.06 0.01 82 1016.8
20260905200234 62 167 0.0 2.6 0.00 0.06 0.01 83 1016.7
20260905195735 62 38 0.9 1.7 0.00 0.06 0.01 81 1016.7
20260905195239 62 355 1.7 3.5 0.00 0.07 0.01 83 1016.8
20260905195235 62 303 0.9 3.5 0.00 0.07 0.01 82 1016.8
20260905194234 62 24 1.7 3.5 0.00 0.07 0.01 83 1016.8
20260905193734 62 9 0.9 3.5 0.00 0.08 0.01 83 1016.8
20260905193235 62 20 0.9 6.1 0.00 0.08 0.01 83 1016.9
20260905192733 62 10 0.9 6.1 0.00 0.08 0.01 85 1017.0
20260905192238 62 28 0.9 6.1 0.00 0.08 0.01 83 1016.9
20260905191732 62 95 0.9 6.1 0.00 0.08 0.01 85 1017.0
20260905191232 62 288 0.9 3.5 0.00 0.08 0.01 84 1017.0
20260905190732 62 34 0.9 2.6 0.00 0.08 0.01 84 1017.0
20260905190232 62 155 0.9 3.5 0.00 0.08 0.01 87 1017.0
20260905185734 61 113 0.9 3.5 0.00 0.08 0.01 88 1017.1
20260905185232 60 19 0.9 3.5 0.00 0.08 0.01 90 1017.0
20260905184732 60 355 0.9 2.6 0.00 0.08 0.01 88 1017.1
20260905184233 59 65 0.9 2.6 0.00 0.08 0.01 87 1017.1
20260905183736 60 225 0.9 3.5 0.00 0.08 0.01 89 1017.1
20260905183731 59 275 0.9 3.5 0.00 0.08 0.01 89 1017.1
20260905183230 59 180 0.9 3.5 0.00 0.08 0.01 88 1017.1
20260905182230 59 44 0.9 3.5 0.00 0.08 0.01 90 1017.1
20260905181736 59 5 0.9 3.5 0.00 0.08 0.01 91 1017.1
20260905181730 59 148 0.0 1.7 0.00 0.08 0.01 91 1017.1
20260905181345 58 0 0.9 3.5 0.00 0.08 0.01 90 1017.2
20260905180842 58 9 0.9 2.6 0.00 0.08 0.01 90 1017.2
20260905180349 58 5 0.9 2.6 0.00 0.08 0.01 90 1017.2
20260905175231 58 25 0.9 4.3 0.00 0.08 0.01 90 1017.2
20260905174734 58 98 0.9 4.3 0.00 0.08 0.01 89 1017.1
20260905174728 58 150 0.9 4.3 0.00 0.08 0.01 89 1017.1
20260905173728 58 136 0.9 4.3 0.00 0.08 0.01 90 1017.0
20260905173228 59 181 0.9 7.8 0.00 0.08 0.01 90 1017.0
20260905172734 59 145 0.9 1.7 0.00 0.08 0.01 89 1017.0
20260905172730 59 143 0.9 7.8 0.00 0.08 0.01 90 1017.0
20260905171733 58 96 0.9 4.3 0.00 0.08 0.01 90 1017.0
20260905171729 58 150 0.9 3.5 0.00 0.08 0.01 90 1017.0
20260905171342 58 172 0.9 4.3 0.00 0.08 0.01 91 1017.0
20260905170841 58 128 0.9 4.3 0.00 0.08 0.01 92 1017.0
20260905170341 58 180 0.9 4.3 0.00 0.08 0.01 92 1016.9
20260905165229 58 169 0.9 3.5 0.00 0.08 0.01 91 1016.9
20260905164728 58 181 0.9 3.5 0.00 0.08 0.01 92 1017.0
20260905164231 58 184 0.9 4.3 0.00 0.08 0.01 91 1017.0
20260905164226 58 172 0.9 4.3 0.00 0.08 0.01 91 1017.0
20260905163840 58 178 0.9 5.2 0.00 0.08 0.01 92 1016.9
20260905162724 58 172 0.9 5.2 0.00 0.08 0.01 91 1016.9
20260905162226 58 175 0.9 3.5 0.00 0.08 0.01 91 1016.9
20260905161724 58 147 0.9 2.6 0.00 0.08 0.01 90 1016.9
20260905161221 58 184 0.9 2.6 0.00 0.08 0.01 91 1016.9
20260905160724 58 0 0.0 2.6 0.00 0.08 0.01 91 1016.9
20260905160222 58 231 0.0 1.7 0.00 0.08 0.01 91 1016.9
20260905155727 58 304 0.0 0.0 0.00 0.08 0.01 92 1016.9
20260905155723 58 304 0.0 0.0 0.00 0.08 0.01 92 1016.9
20260905154723 58 304 0.0 0.0 0.00 0.08 0.01 94 1016.9
20260905154222 57 318 0.0 0.0 0.00 0.08 0.01 94 1016.9
20260905153721 57 318 0.0 0.0 0.00 0.08 0.01 93 1016.9
20260905153222 57 268 0.0 0.0 0.00 0.08 0.01 94 1016.9
20260905152721 57 268 0.0 0.0 0.00 0.08 0.01 94 1016.9
20260905152221 57 268 0.0 0.0 0.00 0.08 0.01 94 1016.9
20260905151721 57 268 0.0 0.0 0.00 0.08 0.01 95 1016.9
20260905151221 57 256 0.0 0.0 0.00 0.08 0.01 95 1016.9
20260905150725 56 248 0.0 0.0 0.00 0.08 0.01 95 1016.8
20260905150721 56 252 0.0 0.0 0.00 0.08 0.01 95 1016.9
20260905145723 56 248 0.0 0.0 0.00 0.08 0.01 94 1016.9